CW0608 Weather Reports


Display with metric or nautical units.
time (UTC)temp
F
wind
direction
speed
MPH
gust
MPH
rain 1hr
in
rain 24hr
in
rain mn
in
humidity
%
barometer
mb
20260505100805 54 219 0.0 5.0 0.00 0.00 0.00 79 1011.9
20260505100305 55 222 1.0 5.0 0.00 0.00 0.00 78 1011.8
20260505094804 56 191 1.0 5.0 0.00 0.00 0.00 77 1011.8
20260505093304 54 226 3.0 7.0 0.00 0.00 0.00 85 1011.7
20260505092805 52 200 1.0 7.0 0.00 0.00 0.00 87 1011.7
20260505092305 52 195 1.0 3.0 0.00 0.00 0.00 88 1011.8
20260505091805 51 191 0.0 0.0 0.00 0.00 0.00 90 1011.8
20260505090804 51 227 0.0 0.0 0.00 0.00 0.00 90 1011.9
20260505090303 51 168 0.0 0.0 0.00 0.00 0.00 90 1011.8
20260505085805 51 167 0.0 0.0 0.00 0.00 0.00 90 1011.8
20260505084305 51 167 0.0 0.0 0.00 0.00 0.00 90 1011.8
20260505083803 51 167 0.0 0.0 0.00 0.00 0.00 89 1011.8
20260505082304 51 167 0.0 0.0 0.00 0.00 0.00 89 1011.9
20260505081804 52 167 0.0 0.0 0.00 0.00 0.00 89 1011.9
20260505081303 52 167 0.0 0.0 0.00 0.00 0.00 89 1011.9
20260505080804 52 167 0.0 0.0 0.00 0.00 0.00 88 1011.9
20260505080304 52 167 0.0 0.0 0.00 0.00 0.00 88 1011.9
20260505074304 53 167 0.0 0.0 0.00 0.00 0.00 85 1011.9
20260505073304 53 167 0.0 0.0 0.00 0.00 0.00 85 1011.8
20260505072804 53 167 0.0 0.0 0.00 0.00 0.00 85 1011.8
20260505071804 55 167 0.0 0.0 0.00 0.00 0.00 80 1011.6
20260505071305 55 167 0.0 0.0 0.00 0.00 0.00 80 1011.7
20260505063304 54 173 0.0 0.0 0.00 0.00 0.00 84 1011.5
20260505062804 55 173 0.0 0.0 0.00 0.00 0.00 84 1011.6
20260505062304 55 173 0.0 0.0 0.00 0.00 0.00 84 1011.5
20260505061804 55 173 0.0 0.0 0.00 0.00 0.00 83 1011.6
20260505060805 56 173 0.0 0.0 0.00 0.00 0.00 81 1011.6
20260505055804 55 148 0.0 0.0 0.00 0.00 0.00 83 1011.8
20260505054805 55 148 0.0 0.0 0.00 0.00 0.00 82 1011.7
20260505054305 56 148 0.0 0.0 0.00 0.00 0.00 80 1011.7
20260505051303 57 148 0.0 0.0 0.00 0.00 0.00 77 1011.9
20260505041304 58 146 0.0 2.0 0.00 0.00 0.00 75 1011.7
20260505040305 59 146 1.0 3.0 0.00 0.00 0.00 74 1011.6
20260505035804 59 146 2.0 3.0 0.00 0.00 0.00 74 1011.5
20260505035305 59 146 1.0 3.0 0.00 0.00 0.00 73 1011.5
20260505034804 59 158 0.0 3.0 0.00 0.00 0.00 73 1011.6
20260505033804 59 160 1.0 3.0 0.00 0.00 0.00 72 1011.5
20260505032804 60 161 1.0 3.0 0.00 0.00 0.00 71 1011.6
20260505030304 61 162 1.0 3.0 0.00 0.00 0.00 68 1011.6
20260505025305 62 154 3.0 7.0 0.00 0.00 0.00 66 1011.6
20260505024804 62 158 3.0 7.0 0.00 0.00 0.00 66 1011.5
20260505023804 61 163 2.0 7.0 0.00 0.00 0.00 68 1011.5
20260505023303 61 158 3.0 7.0 0.00 0.00 0.00 68 1011.5
20260505022304 61 170 2.0 6.0 0.00 0.00 0.00 69 1011.6
20260505021804 61 152 2.0 3.0 0.00 0.00 0.00 69 1011.5
20260505021304 61 154 1.0 2.0 0.00 0.00 0.00 68 1011.6
20260505015805 61 154 1.0 3.0 0.00 0.00 0.00 67 1011.6
20260505014307 62 153 1.0 3.0 0.00 0.00 0.00 66 1011.5
20260505013303 62 142 1.0 3.0 0.00 0.00 0.00 65 1011.4
20260505012803 62 165 1.0 5.0 0.00 0.00 0.00 65 1011.3
20260505012306 62 164 1.0 5.0 0.00 0.00 0.00 64 1011.3
20260505010803 62 165 1.0 3.0 0.00 0.00 0.00 64 1011.1
20260505010304 63 165 1.0 3.0 0.00 0.00 0.00 62 1011.1
20260505004804 64 156 2.0 6.0 0.00 0.00 0.00 59 1011.0
20260505004305 64 157 2.0 6.0 0.00 0.00 0.00 58 1011.1
20260505003805 65 159 2.0 9.0 0.00 0.00 0.00 57 1011.0
20260505003304 65 165 3.0 9.0 0.00 0.00 0.00 57 1011.0
20260505002304 66 176 3.0 9.0 0.00 0.00 0.00 54 1011.0
20260504235803 67 150 5.0 12.0 0.00 0.00 0.00 50 1010.9
20260504235305 67 157 6.0 12.0 0.00 0.00 0.00 49 1010.9
20260504234805 67 154 4.0 10.0 0.00 0.00 0.00 49 1010.9
20260504232304 69 159 4.0 16.0 0.00 0.00 0.00 49 1011.0
20260504231803 69 162 7.0 16.0 0.00 0.00 0.00 47 1011.0
20260504231304 69 159 3.0 12.0 0.00 0.00 0.00 47 1011.0
20260504224804 70 156 7.0 17.0 0.00 0.00 0.00 47 1010.9
20260504224305 70 159 4.0 14.0 0.00 0.00 0.00 47 1010.9
20260504223803 70 151 4.0 14.0 0.00 0.00 0.00 45 1010.8
20260504222803 71 153 4.0 13.0 0.00 0.00 0.00 45 1010.9
20260504222305 71 163 4.0 17.0 0.00 0.00 0.00 45 1010.8
20260504220804 72 163 6.0 14.0 0.00 0.00 0.00 45 1010.8
20260504214304 73 148 5.0 14.0 0.00 0.00 0.00 43 1010.9
20260504213805 73 142 5.0 14.0 0.00 0.00 0.00 42 1010.9
20260504213304 73 126 7.0 14.0 0.00 0.00 0.00 41 1010.9
20260504211304 74 150 4.0 13.0 0.00 0.00 0.00 43 1010.8
20260504205304 74 156 7.0 16.0 0.00 0.00 0.00 41 1010.8
20260504201805 73 91 3.0 12.0 0.00 0.00 0.00 44 1011.3
20260504200804 73 125 5.0 16.0 0.00 0.00 0.00 42 1011.3
20260504195804 73 136 4.0 12.0 0.00 0.00 0.00 42 1011.8
20260504191804 73 155 4.0 12.0 0.00 0.00 0.00 43 1012.4
20260504191304 74 105 5.0 10.0 0.00 0.00 0.00 41 1012.5
20260504185805 74 133 4.0 12.0 0.00 0.00 0.00 44 1012.7
20260504183804 74 151 6.0 14.0 0.00 0.00 0.00 39 1012.8
20260504181804 73 134 6.0 15.0 0.00 0.00 0.00 40 1012.8
20260504181304 73 155 9.0 15.0 0.00 0.00 0.00 40 1012.9
20260504175804 73 218 5.0 16.0 0.00 0.00 0.00 41 1013.0
20260504174304 73 168 5.0 10.0 0.00 0.00 0.00 37 1013.2
20260504173803 73 213 5.0 10.0 0.00 0.00 0.00 42 1013.4
20260504172304 72 159 3.0 10.0 0.00 0.00 0.00 42 1013.7
20260504170803 71 179 2.0 13.0 0.00 0.00 0.00 39 1013.7
20260504150303 65 195 5.0 9.0 0.00 0.00 0.00 45 1014.9
20260504130803 57 185 5.0 8.0 0.00 0.00 0.00 57 1015.7
20260504130303 57 200 2.0 7.0 0.00 0.00 0.00 58 1015.7
20260504120304 54 191 3.0 5.0 0.00 0.00 0.00 66 1015.9